Vancouver, WA

11:26 PM PST on November 23, 2017 (GMT -0800)
Pearson

Weather History for KVUO - December, 2012

Change the Weather History Date:

Monday, December 17, 2012

  Actual Average Record
Temperature  
Mean Temperature 44 °F 40 °F  
Max Temperature 50 °F 46 °F 58 °F (1917)
Min Temperature 37 °F 34 °F 6 °F (1924)
Degree Days  
Heating Degree Days 21    
Month to date heating degree days 340  
Since 1 July heating degree days 1162  
Cooling Degree Days 0    
Month to date cooling degree days 0  
Year to date cooling degree days 398  
Moisture  
Dew Point 35 °F    
Average Humidity 78    
Maximum Humidity 85    
Minimum Humidity 70    
Precipitation  
Precipitation 0.24 in 0.23 in 2.07 in (2015)
Month to date precipitation 4.49 3.56  
Year to date precipitation 42.81 35.93  
Snow  
Snow 0.00 in - - ()
Month to date snowfall 0.0  
Snow Depth 0.00 in    
Sea Level Pressure  
Sea Level Pressure 29.80 in    
Wind  
Wind Speed 8 mph (SW)    
Max Wind Speed 22 mph    
Max Gust Speed 37 mph    
Visibility 10 miles    
Events Rain    
T = Trace of Precipitation, MM = Missing Value Source: NWS Daily Summary

Daily Weather History Graph

Daily Weather History Graph

Search for Another Location

Airport or City:

Trip Planner

Search our weather history database for the weather conditions in past years. The results will help you decide how hot, cold, wet, or windy it might be!

Date:

Astronomy

Dec. 17, 2012 Rise Set
Actual Time 7:46 AM PST 4:28 PM PST
Civil Twilight 7:11 AM PST 5:02 PM PST
Nautical Twilight 6:34 AM PST 5:40 PM PST
Astronomical Twilight 5:57 AM PST 6:16 PM PST
Moon 10:44 AM PST (12/17) 10:10 PM PST (12/17)
Length of Visible Light 9h 50m
Length of Day
8h 41m
Waxing Crescent, 26% of the Moon is Illuminated
Dec 17
Waxing Crescent
Dec 19
First Quarter
Dec 28
Full
Jan 4
Last Quarter
Jan 11
New

Hourly Weather History & Observations

Time (PST) Temp. Windchill Dew Point Humidity Pressure Visibility Wind Dir Wind Speed Gust Speed Precip Events Conditions
12:53 AM 48.0 °F - 39.0 °F 71% 29.20 in 10.0 mi SSW 16.1 mph 31.1 mph 0.00 in Rain Light Rain
1:53 AM 46.9 °F - 39.9 °F 77% 29.24 in 10.0 mi SSW 16.1 mph 28.8 mph 0.01 in Rain Light Rain
2:53 AM 46.9 °F - 39.0 °F 74% 29.33 in 10.0 mi SW 16.1 mph 28.8 mph 0.01 in Rain Light Rain
3:53 AM 46.9 °F - 39.0 °F 74% 29.40 in 10.0 mi WSW 8.1 mph 16.1 mph 0.00 in   Mostly Cloudy
4:53 AM 45.0 °F 40.1 °F 39.0 °F 80% 29.47 in 10.0 mi WSW 9.2 mph - 0.01 in Rain Light Rain
5:53 AM 44.1 °F 38.1 °F 39.0 °F 82% 29.52 in 10.0 mi WSW 11.5 mph 18.4 mph 0.07 in Rain Light Rain
6:53 AM 43.0 °F 38.2 °F 37.0 °F 80% 29.60 in 10.0 mi WSW 8.1 mph - 0.04 in Rain Light Rain
7:53 AM 43.0 °F 39.5 °F 37.0 °F 80% 29.66 in 10.0 mi WSW 5.8 mph - 0.02 in Rain Light Rain
8:53 AM 42.1 °F 40.2 °F 36.0 °F 79% 29.70 in 10.0 mi SSW 3.5 mph - 0.01 in   Mostly Cloudy
9:40 AM 42.8 °F 36.6 °F 35.6 °F 76% 29.75 in 7.0 mi West 11.5 mph 19.6 mph 0.02 in Rain Light Rain
9:49 AM 42.8 °F 39.3 °F 35.6 °F 76% 29.75 in 10.0 mi WSW 5.8 mph 18.4 mph 0.02 in Rain Light Rain
9:53 AM 42.1 °F 40.2 °F 35.1 °F 76% 29.76 in 10.0 mi SW 3.5 mph - 0.02 in   Overcast
10:32 AM 42.8 °F 37.0 °F 35.6 °F 76% 29.79 in 6.0 mi West 10.4 mph - 0.01 in Rain Light Rain
10:53 AM 41.0 °F 35.8 °F 35.1 °F 79% 29.80 in 10.0 mi WSW 8.1 mph - 0.02 in   Overcast
11:20 AM 41.0 °F 35.8 °F 33.8 °F 76% 29.81 in 10.0 mi WSW 8.1 mph - 0.01 in Rain Light Rain
11:48 AM 41.0 °F 39.0 °F 35.6 °F 81% 29.82 in 10.0 mi SW 3.5 mph - 0.01 in Rain Light Rain
11:53 AM 41.0 °F 39.0 °F 35.1 °F 79% 29.83 in 10.0 mi WSW 3.5 mph - 0.01 in Rain Light Rain
12:35 PM 42.8 °F 40.1 °F 35.6 °F 76% 29.83 in 10.0 mi SW 4.6 mph - 0.00 in Rain Light Rain
12:43 PM 42.8 °F 38.0 °F 35.6 °F 76% 29.84 in 10.0 mi West 8.1 mph - 0.00 in Rain Light Rain
12:53 PM 42.1 °F 37.7 °F 35.1 °F 76% 29.84 in 10.0 mi West 6.9 mph - 0.00 in   Overcast
1:22 PM 41.0 °F 36.4 °F 35.6 °F 81% 29.84 in 10.0 mi WSW 6.9 mph - 0.01 in Rain Light Rain
1:37 PM 41.0 °F 36.4 °F 33.8 °F 76% 29.85 in 10.0 mi West 6.9 mph - 0.01 in   Overcast
1:53 PM 41.0 °F 39.0 °F 34.0 °F 76% 29.86 in 10.0 mi WSW 3.5 mph - 0.01 in   Scattered Clouds
4:53 PM 39.0 °F 34.0 °F 32.0 °F 76% 29.93 in 10.0 mi SSW 6.9 mph - N/A   Clear
5:53 PM 39.0 °F 34.8 °F 33.1 °F 79% 29.94 in 10.0 mi South 5.8 mph - N/A   Scattered Clouds
6:53 PM 39.0 °F 35.7 °F 33.1 °F 79% 29.95 in 10.0 mi South 4.6 mph - N/A   Mostly Cloudy
7:53 PM 39.0 °F 34.8 °F 32.0 °F 76% 29.97 in 10.0 mi South 5.8 mph - 0.01 in   Overcast
8:53 PM 37.9 °F 31.5 °F 33.1 °F 83% 29.97 in 10.0 mi South 9.2 mph - 0.00 in   Overcast
9:53 PM 37.0 °F 31.6 °F 32.0 °F 82% 29.98 in 10.0 mi SSE 6.9 mph - N/A   Mostly Cloudy
10:10 PM 37.4 °F 33.8 °F 33.8 °F 87% 29.98 in 10.0 mi Variable 4.6 mph - N/A   Mostly Cloudy
10:25 PM 37.4 °F 34.9 °F 33.8 °F 87% 29.99 in 10.0 mi SSE 3.5 mph - N/A   Overcast
10:32 PM 37.4 °F 32.1 °F 32.0 °F 81% 29.99 in 10.0 mi Variable 6.9 mph - N/A   Overcast
10:39 PM 37.4 °F 33.8 °F 32.0 °F 81% 29.99 in 10.0 mi Variable 4.6 mph - N/A   Overcast
10:53 PM 37.0 °F 31.6 °F 32.0 °F 82% 30.00 in 10.0 mi Variable 6.9 mph - 0.00 in Rain Light Rain
11:12 PM 37.4 °F 33.8 °F 33.8 °F 87% 30.00 in 10.0 mi South 4.6 mph - 0.00 in Rain Light Rain
11:19 PM 37.4 °F 33.8 °F 33.8 °F 87% 30.00 in 10.0 mi South 4.6 mph - 0.00 in Rain Light Rain
11:30 PM 37.4 °F 34.9 °F 33.8 °F 87% 30.00 in 10.0 mi Variable 3.5 mph - 0.00 in Rain Light Rain
11:40 PM 37.4 °F 33.8 °F 33.8 °F 87% 30.00 in 10.0 mi SSE 4.6 mph - 0.00 in   Overcast
11:53 PM 37.0 °F 33.3 °F 33.1 °F 86% 30.00 in 10.0 mi Variable 4.6 mph - 0.00 in   Overcast